Regional Weather Roundup
Issued by NWS Kansas City/Pleasant Hill, MO

Home | Current Version | Previous Version | Graphics & Text | Print | Product List | Glossary Off
Versions: 1 2 3 4 5 6 7 8 9 10 11 12 13 14 15 16 17 18 19 20 21 22 23 24 25 26 27 28

000
ASUS43 KEAX 211610
RWREAX

WEATHER ROUNDUP FOR EASTERN KANSAS AND NORTHWEST MISSOURI
NATIONAL WEATHER SERVICE KANSAS CITY/PLEASANT HILL MO
1000 AM CST TUE NOV 21 2017

KSZ040-057-103>105-MOZ028-029-037-043-211700-
...KANSAS CITY METROPOLITAN AREA...

CITY           SKY/WX    TMP DP  RH WIND       PRES   REMARKS
K.C. INTL      PTSUNNY   48  29  47 N18       30.02R
K.C. DOWNTOWN  PTSUNNY   50  28  42 N12       30.02R
LEES SUMMIT    CLOUDY    48  29  47 N17G24    30.00R
OLATHE - IXD   CLOUDY    49  29  46 N15       30.01R
OLATHE - OJC   CLOUDY    48  29  47 N15       30.00R
LAWRENCE       PTSUNNY   50  28  42 NW18G24   30.05R

$$

MOZ001>008-011>017-020>025-030>033-038>040-044>046-053-054-211700-
...NORTHERN AND CENTRAL MISSOURI...

CITY           SKY/WX    TMP DP  RH WIND       PRES   REMARKS
ST. JOSEPH     CLOUDY    44  27  51 N21       30.06R
MOSBY          PTSUNNY   46  28  49 N17G23    30.02R
WARRENSBURG    CLOUDY    46  28  49 N16G24    29.99R
WHITEMAN AFB   PTSUNNY   48  29  48 N18G25    29.94R
CLINTON        CLOUDY    50  34  53 MISG      29.99R
SEDALIA        PTSUNNY   49  35  58 N20       29.98R
WARSAW         NOT AVBL
CHILLICOTHE      N/A     47  28  47 N8        30.02R
KIRKSVILLE     CLOUDY    44  25  47 N10       29.97R

$$

MOZ041-047>049-056>058-063>065-088>090-097-211700-
...EASTERN AND SOUTHERN MISSOURI...

CITY           SKY/WX    TMP DP  RH WIND       PRES   REMARKS
ST. LOUIS INTL PTSUNNY   53  33  46 SW12      29.93R
SPIRIT OF STL  CLOUDY    52  33  48 W16       29.92R
COLUMBIA       CLOUDY    50  34  54 NW15      29.95R
JEFFERSON CITY CLOUDY    48  34  58 CALM      29.96R
ROLLA          MOSUNNY   47  33  58 SW10      29.94R
OSAGE BEACH    PTSUNNY   48  35  60 SW3       29.97
SPRINGFIELD    PTSUNNY   53  36  52 W7        29.95R
BRANSON        PTSUNNY   55  36  47 CALM      29.95R
JOPLIN         CLOUDY    51  38  60 W8        29.98R
WEST PLAINS    PTSUNNY   51  33  50 SW8       29.96R

$$

IAZ060-094-KSZ022-034>040-054-083-096-NEZ052-066-093-211700-
...KANSAS...SOUTHEAST NEBRASKA AND IOWA...

CITY           SKY/WX    TMP DP  RH WIND       PRES   REMARKS
TOPEKA         CLOUDY    50  29  44 N21G29    30.07R
MANHATTAN      MOSUNNY   48  27  44 NE15G21   30.09R
EMPORIA        CLOUDY    51  25  36 N20G26    30.02R
CHANUTE        CLOUDY    49  34  56 N6        29.98R
WICHITA        CLOUDY    51  28  41 N21G31    30.02R
OMAHA          MOSUNNY   32  15  49 N23G35    30.16R WCI  19
LINCOLN        PTSUNNY   39  10  30 NW26G37   30.18R WCI  28
FALLS CITY     CLOUDY    44  24  45 N18G28    30.09R
LAMONI         CLOUDY    42  23  46 NW20G29   30.00R WCI  33
DES MOINES     CLOUDY    37  15  40 NW21G33   30.03R WCI  26

$$





USA.gov is the U.S. government's official web portal to all federal, state and local government web resources and services.